Regional Weather Roundup
Issued by NWS

Home | Current Version | Previous Version | Graphics & Text | Print | Product List | Glossary On
Versions: 1 2 3 4 5 6 7 8 9 10 11 12 13 14 15 16 17 18 19 20 21 22 23 24 25 26 27 28 29 30 31 32 33 34 35 36 37 38 39 40 41 42 43 44 45 46 47 48 49 50
931
ASUS43 KOAX 191110
RWRNE

WEATHER ROUNDUP FOR NEBRASKA
NATIONAL WEATHER SERVICE OMAHA NE
600 AM CDT THU OCT 19 2017

NOTES: SATELLITE DATA IS BEING USED TO AUGMENT CLOUD COVER ABOVE
       12000 FEET.
       "FAIR" INDICATES FEW OR NO CLOUDS BELOW 12,000 FEET WITH NO
       SIGNIFICANT WEATHER AND/OR OBSTRUCTIONS TO VISIBILITY.


NEZ001>004-019>022-054>056-191200-
NEBRASKA PANHANDLE

CITY           SKY/WX    TMP DP  RH WIND       PRES   REMARKS
SCOTTSBLUFF    CLOUDY    40  31  70 E7        30.02S
ALLIANCE       CLOUDY    39  32  76 SE12      30.01F WCI  32
CHADRON        CLOUDY    54  28  36 SW12      29.93F
GORDON         FAIR      49  34  57 SW13G20   29.98S
KIMBALL        CLOUDY    44  27  52 S6        30.06S
SIDNEY         CLOUDY    37  30  75 SW8       30.06F WCI  31
$$

NEZ057>060-069>072-079>082-191200-
SOUTHWEST NEBRASKA

CITY           SKY/WX    TMP DP  RH WIND       PRES   REMARKS
NORTH PLATTE   CLOUDY    34  33  96 NW3       30.06S
IMPERIAL       CLOUDY    36  31  82 W7        30.07F WCI  30
LEXINGTON      CLOUDY    35  32  90 CALM      30.06R
MCCOOK         CLOUDY    35  33  92 W6        30.06S WCI  30
OGALLALA       CLEAR     34  31  90 CALM      30.07S
$$

NEZ005>010-023>029-035>040-094-191200-
NORTH CENTRAL NEBRASKA

CITY           SKY/WX    TMP DP  RH WIND       PRES   REMARKS
VALENTINE      CLEAR     46  34  62 SW8       29.99F
AINSWORTH      CLOUDY    46  36  69 S9        30.01F
BROKEN BOW     CLOUDY    36  33  89 CALM      30.04S
O`NEILL        CLOUDY    41  36  81 S6        30.04S
ORD            CLOUDY    33  30  88 S3        30.04S
THEDFORD       CLOUDY    40  33  77 CALM      30.04F
$$

NEZ041-046>049-061>064-073>077-083>087-191200-
SOUTH CENTRAL NEBRASKA

CITY           SKY/WX    TMP DP  RH WIND       PRES   REMARKS
GRAND ISLAND   CLOUDY    40  37  89 CALM      30.05S
AURORA         CLOUDY    40  37  86 N3        30.05S
HASTINGS       CLOUDY    40  35  83 CALM      30.05S
HEBRON         CLEAR     41  39  94 CALM      30.05R
HOLDREGE       CLOUDY    37  36  93 NW3       30.04S
KEARNEY        CLOUDY    41  34  76 NW7       30.05S
YORK           CLEAR     39  37  93 N8        30.06R WCI  34
$$

NEZ011>018-030>034-042>045-191200-
NORTHEAST NEBRASKA

CITY           SKY/WX    TMP DP  RH WIND       PRES   REMARKS
NORFOLK        CLOUDY    36  34  92 CALM      30.05S
ALBION         CLOUDY    36  34  92 CALM      30.06S
BLAIR          CLEAR     48  45  87 NE3       30.05S
COLUMBUS       CLEAR     39  36  89 CALM      30.06S
FREMONT        CLEAR     42  40  93 CALM      30.06R
TEKAMAH        CLOUDY    40  38  93 NW5       30.06S
WAYNE          CLOUDY    34  32  93 CALM      30.05S
$$

NEZ050>053-065>068-078-088>093-191200-
SOUTHEAST NEBRASKA

CITY           SKY/WX    TMP DP  RH WIND       PRES   REMARKS
LINCOLN        CLEAR     44  40  85 N5        30.07R
OMAHA EPPLEY   PTCLDY    44  40  85 NW5       30.06R
BEATRICE       CLEAR     43  42  95 CALM      30.04R
FALLS CITY     FOG       45  44  97 CALM      30.05R VSB 1
NEBRASKA CITY  CLEAR     49  49 100 CALM      30.05R
PLATTSMOUTH    CLEAR     50  48  95 E5        30.06R
$$

NEZ044-045-051>053-067-191200-
OMAHA AREA

CITY           SKY/WX    TMP DP  RH WIND       PRES   REMARKS
OMAHA EPPLEY   PTCLDY    44  40  85 NW5       30.06R
BLAIR          CLEAR     48  45  87 NE3       30.05S
FREMONT        CLEAR     42  40  93 CALM      30.06R
MILLARD        CLEAR     47  46  96 CALM      30.06R
OFFUTT AFB     CLEAR     44  43  97 CALM      30.05R
PLATTSMOUTH    CLEAR     50  48  95 E5        30.06R
WAHOO          FAIR      42  40  92 NW6       30.06R
$$




USA.gov is the U.S. government's official web portal to all federal, state and local government web resources and services.